Regional Weather Roundup
Issued by NWS

Current Version | Previous Version | Text Only | Print | Product List | Glossary On
Versions: 1 2 3 4 5 6 7 8 9 10 11 12 13 14 15 16 17 18 19 20 21 22 23 24 25 26 27 28 29 30 31 32 33 34 35 36 37 38 39 40 41 42 43 44 45 46 47 48 49 50
000
ASUS44 KOUN 221310
RWROK

WEATHER ROUNDUP FOR OKLAHOMA
NATIONAL WEATHER SERVICE NORMAN OK
700 AM CST MON DEC 22 2014

NOTE: "FAIR" INDICATES FEW OR NO CLOUDS BELOW 12,000 FEET WITH NO
      SIGNIFICANT WEATHER AND/OR OBSTRUCTIONS TO VISIBILITY.

OKZ001>007-009>012-014-015-017-221400-
NORTHWEST OKLAHOMA AND THE PANHANDLE

CITY           SKY/WX    TMP DP  RH WIND       PRES   REMARKS
GAGE           PTCLDY    43  37  79 NW14      29.61R
$$

OKZ016-021>023-033>039-044-045-221400-
SOUTHWEST OKLAHOMA

CITY           SKY/WX    TMP DP  RH WIND       PRES   REMARKS
LAWTON/REGL    FOG       43  41  93 NW8       29.58R VSB 1/2
LAWTON/FT SILL CLOUDY    45  45 100 N9        29.57R FOG
FREDERICK      FOG       40  39  97 NW9       29.55R VSB 1   WCI  34
CLINTON        CLOUDY    42  40  92 NW12      29.60R
HOBART         MOCLDY    42  41  96 N7        29.59R FOG
ALTUS AFB      MOCLDY    41  41 100 N8        29.58S
$$

OKZ018>020-024>031-221400-
CENTRAL OKLAHOMA

CITY           SKY/WX    TMP DP  RH WIND       PRES   REMARKS
OKLAHOMA CITY  CLOUDY    48  45  87 CALM      29.56R
OKC/WILEY POST CLOUDY    48  46  93 CALM      29.56S FOG
STILLWATER     CLOUDY    48  46  93 SE7       29.56S FOG
GUTHRIE        CLOUDY    48  46  93 SE3       29.55F FOG
$$

OKZ008-013-054>072-221400-
NORTHEAST OKLAHOMA

CITY           SKY/WX    TMP DP  RH WIND       PRES   REMARKS
TULSA          DRIZZLE   48  47  96 SE10      29.59R
TULSA/JONES    CLOUDY    47  46  97 S5        29.59R
PONCA CITY     CLOUDY    47  46  97 SE8       29.56S FOG
BARTLESVILLE   CLOUDY    45  45 100 SE6       29.60F FOG
MUSKOGEE       CLOUDY    47  45  93 SE12      29.61F
$$

OKZ032-040>043-046>053-073>077-221400-
SOUTH CENTRAL/SOUTHEAST OKLAHOMA

CITY           SKY/WX    TMP DP  RH WIND       PRES   REMARKS
ARDMORE/DWNTWN MOCLDY    48  45  87 S6        29.57R
MCALESTER      CLOUDY    52  48  86 S8G20     29.59S
$$




USA.gov is the U.S. government's official web portal to all federal, state and local government web resources and services.